Regional Weather Roundup
Issued by NWS New Orleans/Baton Rouge, LA

Current Version | Previous Version | Text Only | Print | Product List | Glossary On
Versions: 1 2 3 4 5 6 7 8 9 10 11 12 13 14 15 16 17 18 19 20 21 22 23 24 25 26 27 28 29 30 31 32 33 34 35 36 37 38 39 40 41 42 43 44 45 46 47 48 49 50
000
ASUS44 KLIX 161111
RWRLIX
NEW ORLEANS REGIONAL WEATHER ROUNDUP
NATIONAL WEATHER SERVICE NEW ORLEANS LA
600 AM CDT WED OCT 16 2019

NOTE: "FAIR" INDICATES FEW OR NO CLOUDS BELOW 12,000 FEET WITH NO
      SIGNIFICANT WEATHER AND/OR OBSTRUCTIONS TO VISIBILITY.
      SKY/WX - SKY CONDITION AND SIGNIFICANT WEATHER.
      TMP - AIR TEMPERATURE.     DP    - DEWPOINT TEMPERATURE.
      RH  - RELATIVE HUMIDITY.   PRES  - PRESSURE.
      HI  - HEAT INDEX.          WCI   - WIND CHILL INDEX.

*  THESE STATIONS ARE NOT NWS OR FAA STATIONS AND ARE NOT UNDER
   NWS QUALITY CONTROL.

LAZ038-040-048-061>063-065>067-069-161200-
SOUTHEAST LOUISIANA

CITY           SKY/WX    TMP DP  RH WIND       PRES   REMARKS
N.O. INTL ARPT MOCLDY    75  72  90 NW3       29.90R
N.O. LAKEFRONT CLOUDY    77  72  84 SW5       29.89S
N.O. DOWNTOWN* PTSUNNY   76  72  87 CALM      29.91R
RESERVE*       RAIN      75  71  86 NW3       29.91R
SLIDELL        CLOUDY    74  71  91 CALM      29.88S FOG
BATON ROUGE    LGT RAIN  73  71  93 E5        29.86F
BOOTHVILLE     FAIR      76  74  93 CALM      29.88F
BELLE CHASSE   MOCLDY    71  71 100 CALM      29.88S FOG
BOGALUSA*      CLOUDY    73  70  91 CALM      29.89S
GALLIANO*      FAIR      69  67  94 CALM      29.88F FOG
NEW ROADS*     FAIR      72  72 100 CALM      29.89S
GONZALES*      TSTM      74  73  98 W9G20     29.91R
HAMMOND*       MOCLDY    70  70 100 CALM      29.88S
HOUMA*         CLEAR     70  70 100 N6        29.89R
PORT FOURCHON* SUNNY     79  79 100 CALM      29.89F

$$

MSZ070-080>082-161200-
SOUTHERN MISSISSIPPI

CITY           SKY/WX    TMP DP  RH WIND       PRES   REMARKS
MCCOMB         HVY RAIN  72  71  97 N14       29.91R FOG
GULFPORT       CLOUDY    73  70  90 W3        29.87S
BILOXI         MOCLDY    73  72  97 CALM      29.87S
PASCAGOULA     CLOUDY    75  71  87 CALM      29.87S

$$

COASTAL OBSERVATIONS
LAKE AND NEARSHORE STATIONS

STATION/POSITION TIME  SKY/WX   TEMP    WIND        PRES    WAVE
                                AIR SEA DIR/SP/G            HT/PER
                 (UTC)          (F)     (DEG/KT/KT) (MB)    (FT/S)
WAVELAND YACHT   1030            73 78  280/  3/  3 1011.9
GRAND ISLE       1030               82  240/  3/  3   N/A
SOUTHWEST PASS   1030                   320/  4/  7   N/A
NEW CANAL        1030            76 80  210/  3/  4 1011.0
SHELL BEACH      1030            76 82  190/  3/  3 1011.9

OFFSHORE STATIONS

STATION/POSITION TIME  SKY/WX   TEMP    WIND        PRES    WAVE
                                AIR SEA DIR/SP/G            HT/PER
                 (UTC)          (F)     (DEG/KT/KT) (MB)    (FT/S)
64 S DAUPHIN ISL 1050            81     280/  8/ 12 1012.2    3/ 5

$$




USA.gov is the U.S. government's official web portal to all federal, state and local government web resources and services.